Location: Big Prairie
(40.6673°N, 82.0952°W)
Time: 14:58:55
(UTC+00:00)

Cosmos 841 Rocket - Pass Details

Date: 06 July 2022
Orbit: 745 x 772 km, 74.0° (Epoch: 18 August)

Event Time Altitude Azimuth Distance (km) Brightness Sun altitude
Exits shadow 08:31:30 - 273° (W) 2,478 5.8 -14.3°
Reaches altitude 10° 08:32:41 10° 284° (WNW) 2,271 5.7 -14.2°
Maximum altitude 08:34:42 12° 308° (NW) 2,129 5.8 -13.9°
Drops below altitude 10° 08:36:42 10° 331° (NNW) 2,282 6.2 -13.7°
Sets 08:40:44 0° 1° (N) 3,219 7.5 -13.1°
